This demonstration page uses our WeatherBlox Daily Observations layout. Learn more.

Left ArrowRight Arrow

41.55636, -103.73856

Hourly Observations for December 15, 2020

Temp ( °F °C ) Dew Point ( °F °C ) Humidity (%) Winds ( mph kmh ) Pressure ( in mb ) Visibility ( mi km ) Precip ( " mm )
1:56 am 01:56 Cloudy with Light Snow 18 -7.6 16 -9.1 89 89 NW 6 9 30.16 1021 10 16 0.00 0.00
2:56 am 02:56 Mostly Cloudy with Light Snow 19 -7.3 17 -8.6 91 91 NNW 9 15 30.14 1021 8 13 0.00 0.00
3:57 am 03:57 Mostly Cloudy with Light Snow 19 -7.4 17 -8.5 92 92 NW 12 19 30.14 1021 10 16 0.00 0.00
4:56 am 04:56 Mostly Cloudy with Light Snow 21 -6.3 18 -7.6 91 91 NNW 13 20 30.16 1021 10 16 0.00 0.00
5:56 am 05:56 Cloudy with Light Snow 21 -6 19 -7.3 91 91 NW 12 19 30.19 1022 8 13 0.00 0.00
6:57 am 06:57 Cloudy with Light Snow 23 -5.2 21 -6.3 92 92 NNW 15 24 30.18 1022 6 10 0.00 0.00
7:56 am 07:56 Mostly Cloudy with Light Snow 25 -4 21 -6 86 86 N 16 26 30.17 1022 10 16 0.00 0.00
8:56 am 08:56 Cloudy with Light Snow 24 -4.2 22 -5.6 90 90 NW 10 17 30.19 1023 9 14 0.00 0.00
9:57 am 09:57 Windy with Snow Likely 26 -3.5 19 -7.1 76 76 NNW 21 33 30.21 1023 10 16 0.00 0.00
10:56 am 10:56 Mostly Cloudy 26 -3.4 18 -7.6 73 73 NNW 20 31 30.19 1023 10 16 0.00 0.00
11:58 am 11:58 Mostly Cloudy 28 -2.5 18 -7.6 68 68 N 16 26 30.20 1023 10 16 0.00 0.00
12:58 pm 12:58 Mostly Cloudy 28 -2 19 -7.5 66 66 N 17 28 30.17 1022 10 16 0.00 0.00
1:58 pm 13:58 Partly Cloudy 29 -1.4 19 -7 66 66 NNW 14 22 30.14 1021 10 16 0.00 0.00
2:58 pm 14:58 Sunny 30 -1.1 20 -6.9 65 65 NNW 18 30 30.13 1020 10 16 0.00 0.00
3:58 pm 15:58 Mostly Sunny 28 -2.5 19 -7.1 71 71 NW 7 11 30.16 1021 10 16 0.00 0.00
4:58 pm 16:58 Clear 21 -6 17 -8.5 83 83 W 7 11 30.24 1024 10 16 0.00 0.00
5:58 pm 17:58 Clear 19 -7.4 13 -10.8 77 77 WSW 6 9 30.25 1024 10 16 0.00 0.00
6:58 pm 18:58 Clear 17 -8.4 12 -11.3 80 80 W 8 13 30.28 1025 10 16 0.00 0.00
7:58 pm 19:58 Clear 17 -8.2 11 -11.6 77 77 W 10 17 30.25 1024 10 16 0.00 0.00
8:58 pm 20:58 Clear 19 -7.5 11 -11.9 71 71 W 7 11 30.20 1023 10 16 0.00 0.00
9:58 pm 21:58 Clear 17 -8.3 11 -11.8 76 76 W 13 20 30.21 1023 10 16 0.00 0.00
10:58 pm 22:58 Partly Cloudy 20 -6.6 12 -11.2 70 70 W 10 17 30.17 1022 10 16 0.00 0.00
11:58 pm 23:58 Mostly Cloudy 24 -4.3 15 -9.2 69 69 WNW 14 22 30.01 1016 10 16 0.00 0.00

Powered by AerisWeather